Regional Weather Roundup
Issued by NWS Jackson, KY

Home | Current Version | Previous Version | Graphics & Text | Print | Product List | Glossary On
Versions: 1 2 3 4 5 6 7 8 9 10 11 12 13 14 15 16 17 18 19 20 21 22 23 24 25 26 27 28 29 30 31 32 33 34 35 36 37 38 39 40 41 42 43 44 45 46 47 48 49 50
000
ASUS43 KJKL 292310
RWRJKL

EAST KENTUCKY HOURLY WEATHER ROUNDUP
NATIONAL WEATHER SERVICE JACKSON KY
700 PM EDT MON AUG 29 2016

NOTE: "FAIR" INDICATES FEW OR NO CLOUDS BELOW 12,000 FEET WITH
NO SIGNIFICANT WEATHER AND/OR OBSTRUCTIONS TO VISIBILITY.

* THESE REPORTS ARE NOT UNDER NWS QUALITY CONTROL AND MAY NOT
  REPORT WEATHER SUCH AS PRECIPITATION AND FOG.

KYZ079-080-083-085-087-088-110-112-115-119-120-300000
...EASTERN KENTUCKY...

CITY           SKY/WX    TMP DP  RH WIND       PRES   REMARKS
JACKSON        CLOUDY    72  69  90 CALM      30.17R
LONDON         MOSUNNY   78  71  79 N6        30.14S
SOMERSET*      MOSUNNY   82  68  61 N9        30.13F
MONTICELLO*    PTSUNNY  N/A N/A N/A N10       30.14S
WILLIAMSBURG*  PTCLDY    81  73  78 N7        30.13S
MIDDLESBORO*   PTSUNNY   80  72  77 CALM      30.14S
HARLAN APT*    MOCLDY    82  68  61 CALM      30.16R
PIKE CO APT*     N/A     78  65  63 NE6       30.16S
BIG SANDY APT* MOCLDY    74  72  93 CALM      30.16F
MOREHEAD APT*  CLEAR     84  68  58 NE5       30.17R
ASHLAND*       SUNNY     88  72  58 CALM      30.12R HX  94
$$

KYZ035-036-041-042-044-050-067-078-099-300000
...CENTRAL KENTUCKY...

CITY           SKY/WX    TMP DP  RH WIND       PRES   REMARKS
MT STERLING*   SUNNY     86  70  58 E7        30.16S HX  90
FLEMING/MASON* SUNNY     86  69  56 NE7       30.17R HX  90
DANVILLE*      CLOUDY    81  68  65 S5        30.16R
LEXINGTON      MOSUNNY   85  72  65 NE6       30.15S HX  91
FRANKFORT      MOSUNNY   83  71  67 N5        30.14S
LOUISVILLE     MOSUNNY   90  69  50 E10       30.11S HX  94
LEBANON*         N/A     77  72  83 N3        30.14F
GLASGOW*       SUNNY     82  71  68 NE3       30.11S
BOWLING GREEN  SUNNY     89  73  59 NE7       30.09S HX  97
$$

KYZ091>093-OHZ055-061-077-WVZ005-015-034-035-042-300000
...SOUTHERN OHIO/WEST VIRGINIA...

CITY           SKY/WX    TMP DP  RH WIND       PRES   REMARKS
COVINGTON      MOSUNNY   86  71  60 E8        30.16S HX  91
COLUMBUS       MOSUNNY   84  67  56 N7        30.16F
DAYTON         MOSUNNY   84  68  58 E8        30.19S
WILMINGTON     SUNNY     83  72  69 NE7       30.17S
HUNTINGTON     SUNNY     87  69  54 N6        30.13S HX  91
CHARLESTON     MOSUNNY   87  68  52 VRB5      30.13F HX  90
PINEVILLE*     CLOUDY    81  67  61 MISG      30.22R
BECKLEY        SUNNY     79  67  66 E5        30.22S
BLUEFIELD      PTSUNNY   73  64  73 E3        30.25S
LOGAN CO APT*    N/A     82  72  69 CALM      30.16S
$$

VAZ002-007-008-TNZ017-027-036-066-071-300000
...SOUTHWEST VIRGINIA/EAST TENNESSEE...

CITY           SKY/WX    TMP DP  RH WIND       PRES   REMARKS
WISE*          PTSUNNY   81  59  47 N8        30.23S THUNDER
JONESVILLE*      N/A     77  73  88 CALM      30.17R
ABINGDON*      CLOUDY    83  64  53 CALM      30.17S
BRISTOL        PTSUNNY   85  67  54 N6        30.12S
MORRISTOWN*    CLEAR     90  61  37 E6        30.11R
SEVIERVILLE*     N/A     88  55  33 E7        30.08S
KNOXVILLE      MOSUNNY   91  55  29 NE12      30.07S
OAK RIDGE      SUNNY     91  62  37 VRB3      30.10  HX  91
CROSSVILLE     SUNNY     82  70  66 N6        30.15F
NASHVILLE      MOSUNNY   90  71  53 NE9       30.08F HX  96
$$

...KEY TO REMARKS...
VSB - VISIBILITY IN MILES
WCI - WIND CHILL INDEX
HX  - HEAT INDEX

$$



USA.gov is the U.S. government's official web portal to all federal, state and local government web resources and services.